This is the latest recevied weather packets stored in our database for station/object AD8PA-13. If no packets are shown the sender has not sent any weather packets the latest 10 day(s).
| Time | Temp. | Humidity | Pressure | Rain* | Wind** | Luminosity | Snow |
|---|---|---|---|---|---|---|---|
| 1777316830 | 20° C | 58% | 1015.9 hPa | 0 mm | - | - | - |
| 1777315926 | 20° C | 55% | 1016.1 hPa | 0 mm | - | - | - |
| 1777315026 | 20° C | 57% | 1016 hPa | 0 mm | - | - | - |
| 1777314125 | 20° C | 56% | 1016.1 hPa | 0 mm | - | - | - |
| 1777313224 | 20.56° C | 56% | 1016.6 hPa | 0 mm | - | - | - |
| 1777312319 | 20.56° C | 55% | 1017.4 hPa | 0 mm | - | - | - |
| 1777311416 | 20.56° C | 55% | 1017.6 hPa | 0 mm | - | - | - |
| 1777310514 | 20.56° C | 54% | 1018.2 hPa | 0 mm | - | - | - |
| 1777309612 | 19.44° C | 57% | 1018.2 hPa | 0 mm | - | - | - |
| 1777308709 | 18.89° C | 58% | 1018.1 hPa | 0 mm | - | - | - |
| 1777307803 | 18.89° C | 57% | 1018.7 hPa | 0 mm | - | - | - |
| 1777306901 | 18.89° C | 58% | 1018.6 hPa | 0 mm | - | - | - |
| 1777305999 | 18.33° C | 56% | 1019.1 hPa | 0 mm | - | - | - |
| 1777305099 | 17.78° C | 58% | 1019.3 hPa | 0 mm | - | - | - |
| 1777304195 | 17.22° C | 58% | 1019 hPa | 0 mm | - | - | - |
| 1777303292 | 17.78° C | 55% | 1018.9 hPa | 0 mm | - | - | - |
| 1777302391 | 16.67° C | 56% | 1019.1 hPa | 0 mm | - | - | - |
| 1777301489 | 16.11° C | 59% | 1019.5 hPa | 0 mm | - | - | - |
| 1777300586 | 15.56° C | 59% | 1019.7 hPa | 0 mm | - | - | - |
| 1777299682 | 15.56° C | 61% | 1020.2 hPa | 0 mm | - | - | - |
| 1777298781 | 14.44° C | 61% | 1020.6 hPa | 0 mm | - | - | - |
| 1777297881 | 14.44° C | 64% | 1020.8 hPa | 0 mm | - | - | - |
| 1777296978 | 13.89° C | 67% | 1020.4 hPa | 0 mm | - | - | - |
| 1777296074 | 13.33° C | 69% | 1020.6 hPa | 0 mm | - | - | - |
| 1777295172 | 12.22° C | 72% | 1020.5 hPa | 0 mm | - | - | - |
* Rain latest hour (hover to see other rain measurements)
** Current wind speed in m/s (hover to see current wind gust speed)